Time,TemperatureF,DewpointF,PressureIn,WindDirection,WindDirectionDegrees,WindSpeedMPH,WindSpeedGustMPH,Humidity,HourlyPrecipIn,Conditions,Clouds,dailyrainin,SoftwareType,DateUTC
2013-02-11 00:00:00,4.0,-99.9,-100.00,NE,56,2.0,3.0,-999,-99.99,,,-99.99,,2013-02-11 07:00:00,
2013-02-11 00:32:00,4.0,-99.9,-100.00,NE,56,2.0,3.0,-999,-99.99,,,-99.99,,2013-02-11 07:32:00,
2013-02-11 00:42:00,4.0,-99.9,-100.00,NE,56,2.0,3.0,-999,-99.99,,,-99.99,,2013-02-11 07:42:00,
2013-02-11 00:52:00,4.0,-99.9,-100.00,NE,56,2.0,3.0,-999,-99.99,,,-99.99,,2013-02-11 07:52:00,
2013-02-11 04:00:00,3.0,-99.9,-100.00,North,-999,0.0,0.0,-999,-99.99,,,-99.99,,2013-02-11 11:00:00,
2013-02-11 04:32:00,3.0,-99.9,-100.00,North,-999,0.0,0.0,-999,-99.99,,,-99.99,,2013-02-11 11:32:00,
2013-02-11 04:42:00,3.0,-99.9,-100.00,North,-999,0.0,0.0,-999,-99.99,,,-99.99,,2013-02-11 11:42:00,
2013-02-11 04:52:00,3.0,-99.9,-100.00,North,-999,0.0,0.0,-999,-99.99,,,-99.99,,2013-02-11 11:52:00,
2013-02-11 06:00:00,2.0,-99.9,-100.00,NNE,15,0.0,0.0,-999,-99.99,,,-99.99,,2013-02-11 13:00:00,
2013-02-11 06:33:00,2.0,-99.9,-100.00,NNE,15,0.0,0.0,-999,-99.99,,,-99.99,,2013-02-11 13:33:00,
2013-02-11 06:42:00,2.0,-99.9,-100.00,NNE,15,0.0,0.0,-999,-99.99,,,-99.99,,2013-02-11 13:42:00,
2013-02-11 06:52:00,2.0,-99.9,-100.00,NNE,15,0.0,0.0,-999,-99.99,,,-99.99,,2013-02-11 13:52:00,
2013-02-11 08:00:00,2.0,-99.9,-100.00,NNE,16,0.0,0.0,-999,-99.99,,,-99.99,,2013-02-11 15:00:00,
2013-02-11 08:32:00,2.0,-99.9,-100.00,NNE,16,0.0,0.0,-999,-99.99,,,-99.99,,2013-02-11 15:32:00,
2013-02-11 08:43:00,2.0,-99.9,-100.00,NNE,16,0.0,0.0,-999,-99.99,,,-99.99,,2013-02-11 15:43:00,
2013-02-11 08:52:00,2.0,-99.9,-100.00,NNE,16,0.0,0.0,-999,-99.99,,,-99.99,,2013-02-11 15:52:00,
2013-02-11 10:00:00,7.0,-99.9,-100.00,North,8,2.0,7.0,-999,-99.99,,,-99.99,,2013-02-11 17:00:00,
2013-02-11 10:33:00,7.0,-99.9,-100.00,North,8,2.0,7.0,-999,-99.99,,,-99.99,,2013-02-11 17:33:00,
2013-02-11 10:42:00,7.0,-99.9,-100.00,North,8,2.0,7.0,-999,-99.99,,,-99.99,,2013-02-11 17:42:00,
2013-02-11 10:53:00,7.0,-99.9,-100.00,North,8,2.0,7.0,-999,-99.99,,,-99.99,,2013-02-11 17:53:00,
2013-02-11 14:00:00,9.0,-99.9,-100.00,West,269,4.0,8.0,-999,-99.99,,,-99.99,,2013-02-11 21:00:00,
2013-02-11 14:32:00,9.0,-99.9,-100.00,West,269,4.0,8.0,-999,-99.99,,,-99.99,,2013-02-11 21:32:00,
2013-02-11 14:42:00,9.0,-99.9,-100.00,West,269,4.0,8.0,-999,-99.99,,,-99.99,,2013-02-11 21:42:00,
2013-02-11 14:52:00,9.0,-99.9,-100.00,West,269,4.0,8.0,-999,-99.99,,,-99.99,,2013-02-11 21:52:00,
2013-02-11 16:00:00,7.0,-99.9,-100.00,West,275,5.0,13.0,-999,-99.99,,,-99.99,,2013-02-11 23:00:00,
2013-02-11 16:32:00,7.0,-99.9,-100.00,West,275,5.0,13.0,-999,-99.99,,,-99.99,,2013-02-11 23:32:00,
2013-02-11 16:42:00,7.0,-99.9,-100.00,West,275,5.0,13.0,-999,-99.99,,,-99.99,,2013-02-11 23:42:00,
2013-02-11 16:53:00,7.0,-99.9,-100.00,West,275,5.0,13.0,-999,-99.99,,,-99.99,,2013-02-11 23:53:00,
2013-02-11 18:00:00,1.0,-99.9,-100.00,West,262,10.0,19.0,-999,-99.99,,,-99.99,,2013-02-12 01:00:00,
2013-02-11 18:32:00,1.0,-99.9,-100.00,West,262,10.0,19.0,-999,-99.99,,,-99.99,,2013-02-12 01:32:00,
2013-02-11 18:42:00,1.0,-99.9,-100.00,West,262,10.0,19.0,-999,-99.99,,,-99.99,,2013-02-12 01:42:00,
2013-02-11 18:52:00,1.0,-99.9,-100.00,West,262,10.0,19.0,-999,-99.99,,,-99.99,,2013-02-12 01:52:00,
2013-02-11 20:00:00,-1.0,-99.9,-100.00,West,262,11.0,20.0,-999,-99.99,,,-99.99,,2013-02-12 03:00:00,
2013-02-11 20:32:00,-1.0,-99.9,-100.00,West,262,11.0,20.0,-999,-99.99,,,-99.99,,2013-02-12 03:32:00,
2013-02-11 20:42:00,-1.0,-99.9,-100.00,West,262,11.0,20.0,-999,-99.99,,,-99.99,,2013-02-12 03:42:00,
2013-02-11 20:52:00,-1.0,-99.9,-100.00,West,262,11.0,20.0,-999,-99.99,,,-99.99,,2013-02-12 03:52:00,
2013-02-11 22:00:00,-1.0,-99.9,-100.00,WNW,283,5.0,12.0,-999,-99.99,,,-99.99,,2013-02-12 05:00:00,
2013-02-11 22:32:00,-1.0,-99.9,-100.00,WNW,283,5.0,12.0,-999,-99.99,,,-99.99,,2013-02-12 05:32:00,
2013-02-11 22:42:00,-1.0,-99.9,-100.00,WNW,283,5.0,12.0,-999,-99.99,,,-99.99,,2013-02-12 05:42:00,
2013-02-11 22:52:00,-1.0,-99.9,-100.00,WNW,283,5.0,12.0,-999,-99.99,,,-99.99,,2013-02-12 05:52:00,